Home > Weather > Bolzano > Past weeks

Flag for Italy Weather for the Past 2 Weeks in Bolzano, Italy

Now
37 °F

Passing clouds.


Feels Like: 37 °F
Forecast: 18 / 37 °F
Wind: 2 mph from Southeast

Location: Bolzano

Current Time: Feb 10, 2016 at 8:07:35 AM

Latest Report: Feb 10, 2016 at 6:50 AM


Visibility: N/A

Pressure: 29.33 "Hg

Humidity: 93%

Dew point: 36 °F

Location of BolzanoLocation

Historic Weather in Bolzano — Graph

°F

Bolzano Temperature Yesterday

Maximum temperature yesterday: 48 °F (at 3:50 PM)
Minimum temperature yesterday: 39 °F (at 6:50 AM)
Average temperature yesterday: 44 °F

High & Low Weather Summary for the Past Weeks

 TemperatureHumidityPressure
High57 °F (Feb 4, 2:50 PM)100% (Jan 27, 7:50 AM)30.48 "Hg (Jan 27, 7:50 AM)
Low27 °F (Jan 27, 7:50 AM)15% (Feb 4, 2:50 PM)29.33 "Hg (Feb 10, 6:50 AM)
Average42 °F76%30.18 "Hg
* Reported Jan 26 6:50 AM — Feb 10 6:50 AM, Bolzano, Weather by CustomWeather, © 2016

Note: Actual official high and low records may vary slightly from our data, if they occured in-between our weather recording intervals... More about our weather records

Advertising

Bolzano Weather History for the Previous 24 Hours

 ConditionsComfort  
Time TempWeatherWind HumidityBarometerVisibility
6:50 AM
Wed, Feb 10
37 °FPassing clouds.2 mph93%29.33 "HgN/A
10:50 PM
Tue, Feb 9
43 °FRain. Fog.2 mph100%29.42 "Hg4 mi
9:50 PM45 °FRain. Fog.5 mph93%29.45 "Hg4 mi
8:50 PM43 °FRain. Fog.2 mph100%29.50 "Hg2 mi
7:50 PM43 °FRain. Fog.2 mph100%29.53 "Hg1 mi
6:50 PM45 °FRain. Fog.2 mph100%29.56 "Hg2 mi
5:50 PM45 °FRain. Fog.3 mph100%29.62 "Hg3 mi
4:50 PM46 °FRain. Broken clouds.2 mph93%29.65 "Hg5 mi
3:50 PM48 °FDrizzle. Partly sunny.3 mph82%29.68 "HgN/A
2:50 PM46 °FBroken clouds.1 mph82%29.74 "HgN/A
1:50 PM46 °FPartly sunny.1 mph82%29.80 "HgN/A
12:50 PM45 °FPartly sunny.3 mph87%29.86 "Hg6 mi
11:50 AM43 °FBroken clouds.2 mph93%29.89 "Hg6 mi
10:50 AM43 °FBroken clouds.2 mph93%29.92 "Hg5 mi
9:50 AM41 °FBroken clouds.2 mph100%29.92 "Hg6 mi
8:50 AM41 °FBroken clouds.1 mph93%29.95 "Hg6 mi
Weather by CustomWeather, © 2016

See weather overviewHow to use our weather pages